Regional Weather Roundup
Issued by NWS Northern Indiana

Home | Current Version | Previous Version | Graphics & Text | Print | Product List | Glossary On
Versions: 1 2 3 4 5 6 7 8 9 10 11 12 13 14 15 16 17 18 19 20 21 22 23 24 25 26 27 28 29 30 31 32 33 34 35 36 37 38 39 40 41 42 43 44 45 46 47 48 49 50
000
ASUS43 KIWX 300000
RWRIWX

KIWX WEATHER ROUNDUP
NATIONAL WEATHER SERVICE NORTHERN INDIANA
800 PM EDT SAT APR 29 2017

NOTE: "FAIR" INDICATES FEW OR NO CLOUDS BELOW 12,000 FEET WITH NO
SIGNIFICANT WEATHER AND/OR OBSTRUCTIONS TO VISIBILITY.

* THESE STATIONS ARE NOT UNDER NWS QUALITY CONTROL. THEY ALSO MAY NOT
  REPORT WEATHER SUCH AS PRECIPITATION OR FOG.

INZ001>027-300100-
NORTHERN INDIANA

CITY           SKY/WX    TMP DP  RH WIND       PRES   REMARKS
GARY*          RAIN      45  43  93 N29       30.12R
SOUTH BEND     CLOUDY    51  44  77 E12G21    30.08F
6HR MIN TEMP:  51; 6HR MAX TEMP:  52; 6HR PCP:  0.02;

GOSHEN         CLOUDY    50  43  77 E10       30.09F
6HR MIN TEMP:  50; 6HR MAX TEMP:  52; 6HR PCP: TRACE;

MONTICELLO*    CLOUDY    51  49  93 E15G21    29.97S FOG
6HR MIN TEMP:  51; 6HR MAX TEMP:  55;

WARSAW*        CLOUDY    48  43  81 E18       30.07S
ANGOLA*        CLOUDY    46  43  87 E10       30.12F
FORT WAYNE     CLOUDY    48  44  86 NE20G29   30.08S FOG
6HR MIN TEMP:  48; 6HR MAX TEMP:  52; 6HR PCP:  0.01;


$$
INZ028>050-300100-
CENTRAL INDIANA

CITY           SKY/WX    TMP DP  RH WIND       PRES   REMARKS
LAFAYETTE      CLOUDY    52  52 100 E21G30    29.94F FOG
6HR MIN TEMP:  52; 6HR MAX TEMP:  58;

KOKOMO*        CLOUDY    50  49  96 E21G29    30.01F FOG
6HR MIN TEMP:  50; 6HR MAX TEMP:  57;

MUNCIE*        CLOUDY    53  52  96 E14       30.02R FOG
6HR MIN TEMP:  53; 6HR MAX TEMP:  64;

INDIANAPOLIS   CLOUDY    66  62  87 NE17      29.91R
6HR MIN TEMP:  66; 6HR MAX TEMP:  74;


$$
MIZ043>046-050>051-056>058-064>065-071>073-077>080-300100-
SOUTHWEST LOWER MICHIGAN

CITY           SKY/WX    TMP DP  RH WIND       PRES   REMARKS
BATTLE CREEK   CLOUDY    49  44  83 NE10      30.15S
6HR MIN TEMP:  49; 6HR MAX TEMP:  52; 6HR PCP:  0.09;

BENTON HARBOR  LGT RAIN  49  46  90 VRB6      30.13R
6HR MIN TEMP:  49; 6HR MAX TEMP:  54; 6HR PCP:  0.17;

COLDWATER*     CLOUDY    49  43  77 E10       30.13S
6HR MIN TEMP:  49; 6HR MAX TEMP:  52;

HILLSDALE*     CLOUDY    46  37  71 E14       30.14F
HOLLAND        RAIN      48  44  86 NE6       30.19S FOG
6HR MIN TEMP:  48; 6HR MAX TEMP:  55; 6HR PCP:  0.17;

GRAND RAPIDS   LGT RAIN  47  42  83 E13       30.17R
6HR MIN TEMP:  47; 6HR MAX TEMP:  55; 6HR PCP:  0.06;

KALAMAZOO      CLOUDY    50  41  71 E9G17     30.14S
6HR MIN TEMP:  49; 6HR MAX TEMP:  53; 6HR PCP:  0.05;

STURGIS*       CLOUDY    49  42  75 E10G22    30.11F
6HR MIN TEMP:  49; 6HR MAX TEMP:  51;

THREE RIVERS*  CLOUDY    52  41  67 E9        30.12F
6HR MIN TEMP:  51; 6HR MAX TEMP:  52;


$$
OHZ001>008-015>018-024>025-300100-
NORTHWEST OHIO

CITY           SKY/WX    TMP DP  RH WIND       PRES   REMARKS
DEFIANCE       CLOUDY    46  40  79 NE12      30.15R
6HR MIN TEMP:  46; 6HR MAX TEMP:  47; 6HR PCP:  0.01;

FINDLAY        CLOUDY    48  39  71 NE20G25   30.11S
6HR MIN TEMP:  48; 6HR MAX TEMP:  50; 6HR PCP:  0.01;

TOLEDO EXPRESS CLOUDY    45  38  76 NE16G23   30.16S
6HR MIN TEMP:  44; 6HR MAX TEMP:  46; 6HR PCP: TRACE;

TOLEDO METCALF CLOUDY    46  38  73 NE14G21   30.17F
6HR MIN TEMP:  46; 6HR MAX TEMP:  47; 6HR PCP:  0.01;

LIMA           CLOUDY    47  45  93 NE17      30.08F
6HR MIN TEMP:  47; 6HR MAX TEMP:  50; 6HR PCP: TRACE;


$$
AND FOR LAKE MICHIGAN COASTAL AND OPEN LAKE BUOY OBSERVATIONS

STATION/POSITION TEMP    WIND        PRES    VSBY  WAVE
                 AIR SEA DIR/SP/G                  HT/PER
                 (F)     (DEG/KT/KT) (MB)    (MI)  (FT/S)
CALUMET HARBOR    42     350/ 19/ 27 1018.6F
MICHIGAN CITY     44      20/ 25/ 27   N/A
BURNS HARBOR      45      30/ 25/ 29 1017.3F
SOUTH LAKE BUOY   40 41   10/ 16/ 17 1022.4          7/ 7
4 MI NW BRIDGMAN  49 49   70/ 16/ 19 1020.0R         6/ 7
MICHIGAN CITY     44 47                N/A           7/ 7

$$
&&



USA.gov is the U.S. government's official web portal to all federal, state and local government web resources and services.